アトラス彗星

C/2019 J3 ( ATLAS )

English version
Home page
Updated on August 6, 2019

---------------------------------------------------------------------

・ プロフィール

発見日 2019年5月14日
発見光度 18.7等
発見者 Asteroid Terrestrial-Impact Last Alert System (ATLAS) search program

・ 写真集

・ 軌道要素

Epoch 2019 July 16.0 TT = JDT 2458680.5                                         
T 2019 Aug. 1.88952 TT                                  MPCLINUX                
q   2.3735359            (2000.0)            P               Q                  
z  -0.0003291      Peri.   16.55257     -0.17980323     -0.63664583             
 +/-0.0001140      Node   270.51712     -0.96597108     -0.02981907             
e   1.0007812      Incl.  131.41547     -0.18593191     +0.77057959             
From 67 observations 2019 May 14-July 24, mean residual 0".6.                   

・ 光度変化

        m1 = 12.5 + 5 logΔ + 10.0 log r

---------------------------------------------------------------------

軌道要素はM.P.E.C. 2019-O97に掲載されたものです。
光度グラフはComet for Windowsで作成したものです。

---------------------------------------------------------------------

Copyright(C) Seiichi Yoshida (comet@aerith.net). All rights reserved.